GW1414 Weather Reports


Display with metric or nautical units.
time (UTC)temp
F
wind
direction
speed
MPH
gust
MPH
rain 1hr
in
rain 24hr
in
rain mn
in
humidity
%
barometer
mb
20260508225444 60 238 0.0 0.0 0.00 0.00 0.00 64
20260508224941 60 232 0.0 0.0 0.00 0.00 0.00 66
20260508224439 60 223 0.0 0.0 0.00 0.00 0.00 65
20260508223936 61 224 0.0 0.0 0.00 0.00 0.00 63
20260508223434 60 221 0.0 0.0 0.00 0.00 0.00 64
20260508222931 61 224 0.0 0.0 0.00 0.00 0.00 64
20260508222428 61 226 0.0 0.0 0.00 0.00 0.00 63 1011.1
20260508221925 61 226 0.0 0.0 0.00 0.00 0.00 62 1011.1
20260508221421 60 228 0.0 0.0 0.00 0.00 0.00 62 1011.1
20260508220917 60 228 0.0 0.0 0.00 0.00 0.00 63 1011.1
20260508220414 60 228 0.0 0.0 0.00 0.00 0.00 63 1011.1
20260508215910 60 227 0.0 0.0 0.00 0.00 0.00 65 1011.1
20260508215408 61 227 0.0 0.0 0.00 0.00 0.00 67 1011.1
20260508214904 61 246 0.0 0.0 0.00 0.00 0.00 66 1011.1
20260508214402 61 232 0.0 0.0 0.00 0.00 0.00 66 1011.1
20260508213857 62 238 0.0 0.0 0.00 0.00 0.00 65 1011.1
20260508213355 62 225 0.0 0.0 0.00 0.00 0.00 65 1011.1
20260508212850 62 247 0.0 1.0 0.00 0.00 0.00 63 1011.1
20260508212347 62 224 0.0 1.0 0.00 0.00 0.00 62 1011.4
20260508211843 62 258 1.0 2.0 0.00 0.00 0.00 59 1011.4
20260508211339 62 271 2.0 3.0 0.00 0.00 0.00 57 1011.4
20260508210836 63 258 1.0 2.0 0.00 0.00 0.00 58 1011.4
20260508210333 62 252 1.0 2.0 0.00 0.00 0.00 57 1011.4
20260508205829 63 261 1.0 1.0 0.00 0.00 0.00 59 1011.4
20260508205326 63 256 1.0 2.0 0.00 0.00 0.00 57 1011.7
20260508204817 63 244 1.0 3.0 0.00 0.00 0.00 58 1011.7
20260508204314 63 248 3.0 5.0 0.00 0.00 0.00 58 1011.7
20260508203810 63 275 2.0 3.0 0.00 0.00 0.00 57 1011.6
20260508203306 63 255 2.0 2.0 0.00 0.00 0.00 57 1011.6
20260508202802 63 259 3.0 5.0 0.00 0.00 0.00 54 1012.0
20260508202259 63 280 3.0 3.0 0.00 0.00 0.00 55 1012.0
20260508201756 63 258 2.0 5.0 0.00 0.00 0.00 56 1012.0
20260508201253 63 259 2.0 3.0 0.00 0.00 0.00 57 1012.0
20260508200750 63 257 3.0 5.0 0.00 0.00 0.00 55 1012.0
20260508200246 63 261 3.0 3.0 0.00 0.00 0.00 54 1012.0
20260508195742 63 268 3.0 6.0 0.00 0.00 0.00 54 1012.0
20260508195239 64 271 4.0 7.0 0.00 0.00 0.00 53 1012.2
20260508194735 64 263 4.0 6.0 0.00 0.00 0.00 53 1012.2
20260508194232 64 256 4.0 6.0 0.00 0.00 0.00 53 1012.2
20260508193730 64 268 5.0 8.0 0.00 0.00 0.00 54 1012.2
20260508193226 64 276 5.0 8.0 0.00 0.00 0.00 52 1012.2
20260508192722 64 261 5.0 6.0 0.00 0.00 0.00 52 1012.2
20260508192220 65 264 5.0 8.0 0.00 0.00 0.00 53 1012.2
20260508191717 65 255 5.0 7.0 0.00 0.00 0.00 52 1012.2
20260508191214 65 262 5.0 8.0 0.00 0.00 0.00 51 1012.2
20260508190711 65 267 5.0 6.0 0.00 0.00 0.00 52
20260508190207 64 259 3.0 6.0 0.00 0.00 0.00 53
20260508185704 64 258 5.0 7.0 0.00 0.00 0.00 51
20260508185201 65 269 5.0 6.0 0.00 0.00 0.00 54
20260508184658 65 257 5.0 6.0 0.00 0.00 0.00 53
20260508184156 65 260 4.0 6.0 0.00 0.00 0.00 52
20260508183652 66 269 6.0 9.0 0.00 0.00 0.00 50
20260508183148 66 266 6.0 9.0 0.00 0.00 0.00 51
20260508182644 66 255 3.0 6.0 0.00 0.00 0.00 53 1013.6
20260508182141 66 236 3.0 5.0 0.00 0.00 0.00 53 1013.6
20260508181636 66 259 4.0 7.0 0.00 0.00 0.00 55 1013.6
20260508181134 66 275 5.0 6.0 0.00 0.00 0.00 52 1013.6
20260508180630 66 263 3.0 5.0 0.00 0.00 0.00 56 1013.6
20260508180127 64 260 5.0 6.0 0.00 0.00 0.00 53 1013.6
20260508175624 64 259 4.0 6.0 0.00 0.00 0.00 53 1013.6
20260508175121 63 261 3.0 6.0 0.00 0.00 0.00 55 1013.6
20260508174618 63 245 6.0 8.0 0.00 0.00 0.00 53 1013.6
20260508174115 64 275 5.0 7.0 0.00 0.00 0.00 54 1013.6
20260508173612 64 267 3.0 5.0 0.00 0.00 0.00 54 1013.6
20260508173108 65 258 7.0 9.0 0.00 0.00 0.00 54 1013.6
20260508172606 64 257 4.0 6.0 0.00 0.00 0.00 55 1013.6
20260508172102 64 265 4.0 8.0 0.00 0.00 0.00 54 1014.7
20260508171558 66 255 6.0 7.0 0.00 0.00 0.00 51 1014.7
20260508171055 66 258 5.0 7.0 0.00 0.00 0.00 53 1014.7
20260508170553 64 256 6.0 7.0 0.00 0.00 0.00 53 1014.7
20260508170050 64 267 4.0 8.0 0.00 0.00 0.00 53 1014.7
20260508165547 64 251 5.0 8.0 0.00 0.00 0.00 54 1014.7
20260508165044 64 263 7.0 9.0 0.00 0.00 0.00 53 1014.7
20260508164540 64 270 4.0 6.0 0.00 0.00 0.00 54 1014.7
20260508164037 64 269 6.0 7.0 0.00 0.00 0.00 54 1014.7
20260508163534 64 258 5.0 6.0 0.00 0.00 0.00 55 1014.7
20260508163031 64 261 5.0 7.0 0.00 0.00 0.00 53 1014.5
20260508162528 63 257 7.0 8.0 0.00 0.00 0.00 53 1014.5
20260508162025 63 264 5.0 9.0 0.00 0.00 0.00 53 1014.7
20260508161522 63 273 6.0 8.0 0.00 0.00 0.00 53 1014.7
20260508161019 63 262 7.0 8.0 0.00 0.00 0.00 54 1014.7
20260508160517 62 264 6.0 8.0 0.00 0.00 0.00 56 1014.7
20260508160014 62 271 7.0 8.0 0.00 0.00 0.00 54
20260508155511 62 266 6.0 8.0 0.00 0.00 0.00 54
20260508155008 63 271 7.0 10.0 0.00 0.00 0.00 54
20260508154505 63 272 5.0 7.0 0.00 0.00 0.00 54
20260508154002 63 271 6.0 7.0 0.00 0.00 0.00 55
20260508153458 62 267 7.0 8.0 0.00 0.00 0.00 55
20260508152955 62 259 7.0 9.0 0.00 0.00 0.00 55
20260508152452 62 272 5.0 8.0 0.00 0.00 0.00 56
20260508151948 62 259 5.0 7.0 0.00 0.00 0.00 59
20260508151444 62 268 4.0 6.0 0.00 0.00 0.00 57
20260508150941 62 275 3.0 5.0 0.00 0.00 0.00 62
20260508150438 60 277 5.0 7.0 0.00 0.00 0.00 58
20260508145933 60 268 7.0 7.0 0.00 0.00 0.00 59
20260508145430 59 259 6.0 7.0 0.00 0.00 0.00 58
20260508144927 59 269 4.0 6.0 0.00 0.00 0.00 59
20260508144425 59 262 4.0 7.0 0.00 0.00 0.00 61
20260508143923 58 278 5.0 7.0 0.00 0.00 0.00 60
20260508143420 58 268 4.0 8.0 0.00 0.00 0.00 60
20260508142916 58 256 5.0 7.0 0.00 0.00 0.00 59
20260508142413 58 255 3.0 5.0 0.00 0.00 0.00 61
20260508141909 58 270 4.0 7.0 0.00 0.00 0.00 59
20260508141406 58 273 4.0 5.0 0.00 0.00 0.00 60
20260508140904 59 239 2.0 6.0 0.00 0.00 0.00 58
20260508140401 58 256 5.0 6.0 0.00 0.00 0.00 59
20260508135856 58 269 3.0 7.0 0.00 0.00 0.00 60
20260508135353 57 268 6.0 9.0 0.00 0.00 0.00 57
20260508134849 58 260 4.0 7.0 0.00 0.00 0.00 58
20260508134346 59 250 4.0 6.0 0.00 0.00 0.00 58
20260508133842 57 283 4.0 6.0 0.00 0.00 0.00 61
20260508133341 58 262 3.0 5.0 0.00 0.00 0.00 62
20260508132837 57 258 5.0 7.0 0.00 0.00 0.00 61
20260508132335 56 253 2.0 5.0 0.00 0.00 0.00 61
20260508131832 55 269 3.0 5.0 0.00 0.00 0.00 61
20260508131327 55 269 3.0 5.0 0.00 0.00 0.00 60
20260508130824 55 257 4.0 6.0 0.00 0.00 0.00 61
20260508130321 55 257 3.0 6.0 0.00 0.00 0.00 63
20260508125817 55 245 2.0 5.0 0.00 0.00 0.00 64
20260508125314 55 258 1.0 2.0 0.00 0.00 0.00 66
20260508124812 54 287 2.0 5.0 0.00 0.00 0.00 63
20260508124308 53 253 1.0 3.0 0.00 0.00 0.00 65
20260508123807 53 267 1.0 2.0 0.00 0.00 0.00 66 1015.2
20260508123305 53 256 1.0 2.0 0.00 0.00 0.00 66 1015.2
20260508122800 52 241 1.0 3.0 0.00 0.00 0.00 68 1015.2
20260508122257 53 259 2.0 2.0 0.00 0.00 0.00 65 1015.2
20260508121755 51 243 1.0 2.0 0.00 0.00 0.00 70 1015.2
20260508121253 51 245 1.0 1.0 0.00 0.00 0.00 72 1015.2
20260508120750 51 266 0.0 1.0 0.00 0.00 0.00 68 1015.2
20260508120249 50 260 0.0 2.0 0.00 0.00 0.00 70 1015.2
20260508115746 50 254 1.0 2.0 0.00 0.00 0.00 71 1015.2
20260508115243 50 254 1.0 2.0 0.00 0.00 0.00 71 1015.2
20260508114739 49 256 1.0 2.0 0.00 0.00 0.00 72 1015.2
20260508114236 50 250 1.0 2.0 0.00 0.00 0.00 71 1015.2
20260508113732 50 257 1.0 2.0 0.00 0.00 0.00 70
20260508113231 50 258 1.0 2.0 0.00 0.00 0.00 70
20260508112727 50 253 1.0 2.0 0.00 0.00 0.00 71
20260508112224 49 237 0.0 2.0 0.00 0.00 0.00 73
20260508111720 49 240 2.0 2.0 0.00 0.00 0.00 72
20260508111219 49 242 1.0 2.0 0.00 0.00 0.00 70
20260508110715 49 247 1.0 2.0 0.00 0.00 0.00 70
20260508110212 49 249 1.0 2.0 0.00 0.00 0.00 71
20260508105712 49 242 0.0 2.0 0.00 0.00 0.00 72
20260508105209 48 247 1.0 3.0 0.00 0.00 0.00 71
20260508104707 48 231 2.0 2.0 0.00 0.00 0.00 70
20260508104203 48 252 1.0 2.0 0.00 0.00 0.00 71
20260508103700 48 249 2.0 3.0 0.00 0.00 0.00 71
20260508103158 48 252 2.0 2.0 0.00 0.00 0.00 72
20260508102655 48 247 1.0 2.0 0.00 0.00 0.00 71
20260508102153 49 251 2.0 2.0 0.00 0.00 0.00 71
20260508101649 49 248 2.0 2.0 0.00 0.00 0.00 70
20260508101148 48 233 2.0 2.0 0.00 0.00 0.00 70
20260508100644 48 230 2.0 2.0 0.00 0.00 0.00 71
20260508100143 48 254 2.0 2.0 0.00 0.00 0.00 70
20260508095639 48 242 1.0 3.0 0.00 0.00 0.00 70
20260508095136 48 234 1.0 2.0 0.00 0.00 0.00 72
20260508094633 48 254 1.0 2.0 0.00 0.00 0.00 71
20260508094129 48 257 2.0 2.0 0.00 0.00 0.00 71
20260508093627 48 261 2.0 3.0 0.00 0.00 0.00 71
20260508093124 48 251 2.0 2.0 0.00 0.00 0.00 72
20260508092621 48 259 2.0 3.0 0.00 0.00 0.00 72
20260508092120 47 251 2.0 2.0 0.00 0.00 0.00 72
20260508091617 47 259 2.0 2.0 0.00 0.00 0.00 73
20260508091114 47 256 2.0 3.0 0.00 0.00 0.00 73
20260508090612 47 267 2.0 2.0 0.00 0.00 0.00 73
20260508090109 47 252 3.0 3.0 0.00 0.00 0.00 74
20260508085605 47 252 2.0 3.0 0.00 0.00 0.00 74
20260508085102 47 273 3.0 3.0 0.00 0.00 0.00 73
20260508084559 47 262 2.0 2.0 0.00 0.00 0.00 73
20260508084056 47 252 2.0 2.0 0.00 0.00 0.00 72
20260508083553 47 258 2.0 3.0 0.00 0.00 0.00 72
20260508083050 47 253 1.0 2.0 0.00 0.00 0.00 73
20260508082546 46 249 2.0 3.0 0.00 0.00 0.00 73
20260508082043 47 258 2.0 3.0 0.00 0.00 0.00 73
20260508081541 47 247 2.0 2.0 0.00 0.00 0.00 73
20260508081036 47 242 3.0 3.0 0.00 0.00 0.00 73
20260508080535 47 252 2.0 3.0 0.00 0.00 0.00 72
20260508080032 47 250 2.0 2.0 0.00 0.00 0.00 73
20260508075528 47 261 3.0 3.0 0.00 0.00 0.00 73
20260508075026 47 246 2.0 2.0 0.00 0.00 0.00 72
20260508074523 47 248 1.0 3.0 0.00 0.00 0.00 71
20260508074020 47 251 2.0 3.0 0.00 0.00 0.00 71
20260508073517 47 252 2.0 2.0 0.00 0.00 0.00 71
20260508073015 47 273 2.0 2.0 0.00 0.00 0.00 71
20260508072510 47 256 2.0 2.0 0.00 0.00 0.00 71
20260508072008 47 256 1.0 2.0 0.00 0.00 0.00 71
20260508071506 48 260 2.0 2.0 0.00 0.00 0.00 70
20260508071003 48 256 2.0 3.0 0.00 0.00 0.00 70
20260508070500 48 257 2.0 2.0 0.00 0.00 0.00 72
20260508065958 48 261 2.0 2.0 0.00 0.00 0.00 70
20260508065456 48 262 2.0 3.0 0.00 0.00 0.00 68
20260508064954 48 260 2.0 2.0 0.00 0.00 0.00 70
20260508064451 48 258 2.0 2.0 0.00 0.00 0.00 69
20260508063949 48 264 2.0 3.0 0.00 0.00 0.00 69
20260508063446 48 255 3.0 5.0 0.00 0.00 0.00 68
20260508062944 48 255 2.0 2.0 0.00 0.00 0.00 69
20260508062441 49 253 3.0 3.0 0.00 0.00 0.00 69
20260508061938 49 257 4.0 5.0 0.00 0.00 0.00 68
20260508061436 49 260 3.0 5.0 0.00 0.00 0.00 67
20260508060932 49 256 3.0 3.0 0.00 0.00 0.00 67
20260508060430 49 263 2.0 3.0 0.00 0.00 0.00 67
20260508055925 49 242 2.0 5.0 0.00 0.00 0.00 66
20260508055422 49 257 3.0 3.0 0.00 0.00 0.00 66
20260508054918 49 261 3.0 3.0 0.00 0.00 0.00 66
20260508054416 50 250 2.0 3.0 0.00 0.00 0.00 65
20260508053913 50 261 3.0 5.0 0.00 0.00 0.00 65
20260508053410 50 245 2.0 2.0 0.00 0.00 0.00 64
20260508052908 50 246 3.0 3.0 0.00 0.00 0.00 65
20260508052405 49 239 2.0 3.0 0.00 0.00 0.00 65
20260508051901 49 244 1.0 3.0 0.00 0.00 0.00 67
20260508051357 50 235 2.0 3.0 0.00 0.00 0.00 65
20260508050853 50 254 2.0 2.0 0.00 0.00 0.00 66
20260508050350 50 242 1.0 2.0 0.00 0.00 0.00 66
20260508045846 50 252 1.0 3.0 0.00 0.00 0.00 65
20260508045344 50 246 3.0 3.0 0.00 0.00 0.00 64
20260508044841 50 221 3.0 3.0 0.00 0.00 0.00 64
20260508044337 50 233 3.0 3.0 0.00 0.00 0.00 67
20260508043833 49 254 2.0 3.0 0.00 0.00 0.00 67
20260508043331 49 218 1.0 2.0 0.00 0.00 0.00 68
20260508042827 50 224 0.0 1.0 0.00 0.00 0.00 68
20260508042325 50 221 0.0 2.0 0.00 0.00 0.00 69
20260508041822 50 229 1.0 2.0 0.00 0.00 0.00 67
20260508041318 50 249 1.0 1.0 0.00 0.00 0.00 65
20260508040815 50 233 0.0 1.0 0.00 0.00 0.00 66
20260508040312 50 222 0.0 2.0 0.00 0.00 0.00 68
20260508035809 50 239 1.0 1.0 0.00 0.00 0.00 67
20260508035307 50 247 0.0 0.0 0.00 0.00 0.00 70
20260508034803 51 241 1.0 2.0 0.00 0.00 0.00 68
20260508034300 50 240 0.0 1.0 0.00 0.00 0.00 70
20260508033757 50 242 0.0 1.0 0.00 0.00 0.00 71
20260508033256 50 220 0.0 0.0 0.00 0.00 0.00 70
20260508032753 50 225 0.0 0.0 0.00 0.00 0.00 70
20260508032250 50 221 0.0 0.0 0.00 0.00 0.00 70
20260508031746 50 220 0.0 0.0 0.00 0.00 0.00 71
20260508031243 51 224 0.0 0.0 0.00 0.00 0.00 71
20260508030739 51 208 0.0 1.0 0.00 0.00 0.00 71
20260508030237 51 242 0.0 1.0 0.00 0.00 0.00 69
20260508025733 50 244 0.0 0.0 0.00 0.00 0.00 70
20260508025230 51 223 0.0 0.0 0.00 0.00 0.00 74
20260508024726 51 241 0.0 1.0 0.00 0.00 0.00 71
20260508024223 50 230 0.0 0.0 0.00 0.00 0.00 71
20260508023720 50 223 0.0 0.0 0.00 0.00 0.00 72
20260508023218 51 232 0.0 0.0 0.00 0.00 0.00 73
20260508022713 50 239 0.0 0.0 0.00 0.00 0.00 70
20260508022210 50 200 0.0 0.0 0.00 0.00 0.00 69 1015.2
20260508021707 50 223 0.0 1.0 0.00 0.00 0.00 72 1015.2
20260508021202 50 212 0.0 0.0 0.00 0.00 0.00 77 1015.2
20260508020700 50 233 0.0 0.0 0.00 0.00 0.00 77 1015.2
20260508020157 50 208 0.0 0.0 0.00 0.00 0.00 70 1015.2
20260508015654 50 207 0.0 0.0 0.00 0.00 0.00 71 1015.2
20260508015151 51 207 0.0 0.0 0.00 0.00 0.00 75 1015.2
20260508014648 51 206 0.0 0.0 0.00 0.00 0.00 67 1015.2
20260508014144 51 206 0.0 0.0 0.00 0.00 0.00 68 1015.2
20260508013640 51 206 0.0 0.0 0.00 0.00 0.00 73 1015.2
20260508013137 51 205 0.0 0.0 0.00 0.00 0.00 68 1015.2
20260508012635 51 205 0.0 0.0 0.00 0.00 0.00 70 1015.2
20260508012132 52 208 1.0 1.0 0.00 0.00 0.00 69 1015.3
20260508011630 52 263 0.0 0.0 0.00 0.00 0.00 65 1015.1
20260508011127 52 262 0.0 0.0 0.00 0.00 0.00 65 1015.1
20260508010624 52 239 0.0 0.0 0.00 0.00 0.00 62 1015.1
20260508010122 52 225 0.0 0.0 0.00 0.00 0.00 61 1015.1
20260508005619 52 230 0.0 0.0 0.00 0.00 0.00 64 1015.1
20260508005114 52 230 0.0 0.0 0.00 0.00 0.00 64 1015.4
20260508004611 52 248 0.0 0.0 0.00 0.00 0.00 62 1015.4
20260508004108 53 228 0.0 0.0 0.00 0.00 0.00 66 1015.4
20260508003604 52 226 0.0 0.0 0.00 0.00 0.00 63 1015.4
20260508003102 53 232 0.0 0.0 0.00 0.00 0.00 66 1015.4
20260508002558 53 219 0.0 0.0 0.00 0.00 0.00 64 1015.4
20260508002055 54 230 0.0 0.0 0.00 0.00 0.00 61 1015.4
20260508001551 54 266 1.0 1.0 0.00 0.00 0.00 56 1015.4
20260508001047 54 258 1.0 1.0 0.00 0.00 0.00 56 1014.8
20260508000543 54 241 0.0 1.0 0.00 0.00 0.00 57 1014.8
20260508000040 55 242 0.0 1.0 0.00 0.00 0.00 56 1014.8
20260507235537 56 255 1.0 2.0 0.00 0.00 0.00 53 1014.8
20260507235035 56 260 2.0 2.0 0.00 0.00 0.00 48 1014.8
20260507234531 57 257 2.0 3.0 0.00 0.00 0.00 46 1014.8
20260507234027 57 254 0.0 1.0 0.00 0.00 0.00 50 1014.9
20260507233524 58 250 0.0 1.0 0.00 0.00 0.00 51 1015.0
20260507233023 57 269 2.0 2.0 0.00 0.00 0.00 49 1015.0
20260507232519 57 260 1.0 2.0 0.00 0.00 0.00 46
20260507232016 57 267 1.0 2.0 0.00 0.00 0.00 45
20260507231512 58 262 2.0 3.0 0.00 0.00 0.00 49
20260507231010 58 224 0.0 2.0 0.00 0.00 0.00 52
20260507230507 57 258 2.0 3.0 0.00 0.00 0.00 48
20260507230003 58 257 1.0 1.0 0.00 0.00 0.00 47